Home > Weather > Kristiansand > Past weeks

Flag for Norway Past Weather in Kristiansand, Norway — Yesterday and Last 2 Weeks

Now
55 °F

Passing clouds.


Feels Like: 54 °F
Forecast: 53 / 59 °F
Wind: 7 mph from Southwest

Location: Kristiansand / Kjevik

Current Time: Jun 27, 2016 at 12:45:52 AM

Latest Report: Jun 26, 2016 at 11:50 PM


Visibility: N/A

Pressure: 29.83 "Hg

Humidity: 88%

Dew Point: 52 °F

Location of KristiansandLocation

Past Weather in Kristiansand — Graph

°F

Kristiansand Temperature Yesterday

Maximum temperature yesterday: 64 °F (at 10:50 AM)
Minimum temperature yesterday: 55 °F (at 11:50 PM)
Average temperature yesterday: 60 °F

High & Low Weather Summary for the Past Weeks

 TemperatureHumidityPressure
High72 °F (Jun 17, 4:50 PM)100% (Jun 16, 7:20 AM)30.18 "Hg (Jun 16, 7:20 AM)
Low43 °F (Jun 12, 1:20 AM)35% (Jun 19, 11:50 AM)29.53 "Hg (Jun 15, 4:50 AM)
Average60 °F79%29.82 "Hg
* Reported Jun 11 11:20 PM — Jun 26 11:50 PM, Kristiansand, Weather by CustomWeather, © 2016

Note: Actual official high and low records may vary slightly from our data, if they occured in-between our weather recording intervals... More about our weather records

Advertising

Kristiansand Weather History for the Previous 24 Hours

Scroll right to see more
 ConditionsComfort  
Time TempWeatherWind HumidityBarometerVisibility
11:50 PM
Sun, Jun 26
55 °FPassing clouds.7 mph88%29.83 "HgN/A
11:20 PM57 °FScattered clouds.7 mph88%29.83 "HgN/A
10:50 PM57 °FScattered showers. Scattered clouds.9 mph82%29.83 "HgN/A
10:20 PM57 °FScattered showers. Scattered clouds.12 mph88%29.83 "HgN/A
9:50 PM57 °FScattered showers. Broken clouds.10 mph82%29.83 "HgN/A
9:20 PM57 °FBroken clouds.12 mph88%29.80 "HgN/A
8:50 PM59 °FDrizzle. Broken clouds.14 mph82%29.80 "HgN/A
8:20 PM59 °FBroken clouds.12 mph82%29.80 "HgN/A
7:50 PM59 °FPartly sunny.16 mph82%29.80 "HgN/A
7:20 PM61 °FPartly sunny.15 mph77%29.80 "HgN/A
6:50 PM61 °FBroken clouds.17 mph77%29.77 "HgN/A
6:20 PM61 °FBroken clouds.15 mph83%29.77 "HgN/A
5:50 PM61 °FDrizzle. Partly sunny.15 mph77%29.77 "HgN/A
5:20 PM61 °FPartly sunny.16 mph77%29.77 "HgN/A
4:50 PM61 °FPartly sunny.18 mph83%29.77 "HgN/A
4:20 PM61 °FPartly sunny.14 mph83%29.77 "HgN/A
3:50 PM61 °FPartly sunny.16 mph83%29.74 "HgN/A
3:20 PM61 °FPartly sunny.13 mph83%29.74 "HgN/A
2:50 PM59 °FPartly sunny.13 mph94%29.74 "HgN/A
2:20 PM59 °FDrizzle. Partly sunny.13 mph94%29.74 "HgN/A
1:50 PM59 °FDrizzle. Partly sunny.16 mph94%29.71 "HgN/A
1:20 PM61 °FSprinkles. Partly sunny.15 mph88%29.71 "HgN/A
12:50 PM61 °FDrizzle. Fog.15 mph94%29.68 "Hg3 mi
12:20 PM63 °FPartly sunny.6 mph94%29.68 "Hg5 mi
11:50 AM63 °FPartly sunny.8 mph94%29.68 "HgN/A
11:20 AM64 °FPartly sunny.14 mph88%29.68 "HgN/A
10:50 AM64 °FSprinkles. Partly sunny.14 mph88%29.68 "HgN/A
10:20 AM63 °FPartly sunny.12 mph94%29.65 "HgN/A
9:50 AM63 °FPartly sunny.7 mph94%29.68 "HgN/A
9:20 AM63 °FPartly sunny.9 mph94%29.68 "HgN/A
8:50 AM61 °FLight rain. Partly sunny.10 mph94%29.68 "HgN/A
8:20 AM61 °FLight rain. Partly sunny.9 mph94%29.68 "Hg3 mi
7:50 AM61 °FBroken clouds.7 mph94%29.68 "HgN/A
7:20 AM61 °FLight rain. Broken clouds.10 mph94%29.68 "Hg4 mi
6:50 AM61 °FRain showers. Broken clouds.9 mph88%29.71 "Hg4 mi
6:20 AM61 °FBroken clouds.14 mph88%29.71 "HgN/A
5:50 AM59 °FPartly sunny.12 mph94%29.71 "HgN/A
5:20 AM59 °FPassing clouds.14 mph94%29.71 "HgN/A
4:50 AM61 °FRain. Overcast.10 mph83%29.71 "HgN/A
4:20 AM61 °FPassing clouds.3 mph83%29.74 "HgN/A
3:50 AM61 °FPassing clouds.3 mph88%29.77 "HgN/A
3:20 AM61 °FPartly cloudy.8 mph88%29.77 "HgN/A
2:50 AM61 °FLight rain. Mostly cloudy.6 mph100%29.83 "HgN/A
2:20 AM61 °FLight rain. Partly cloudy.5 mph94%29.80 "HgN/A
1:50 AM61 °FLight rain. Passing clouds.6 mph94%29.83 "HgN/A
1:20 AM61 °FLight rain. Overcast.6 mph94%29.86 "HgN/A
12:50 AM63 °FPassing clouds.3 mph88%29.86 "HgN/A
12:20 AM63 °FLight rain. Mostly cloudy.3 mph88%29.89 "HgN/A
Weather by CustomWeather, © 2016

See weather overviewHow to use our weather pages